Flag for Czech Republic Weather past 2 weeks in Tábor, Czech Republic

Now
56 °F

Fog.


Feels Like: 56 °F
Forecast: 49 / 63 °F
Wind: 2 mph from Northwest

Location: Kocelovice

Current Time: Oct 2, 2014 at 12:11:01 AM

Latest Report: Oct 1, 2014 at 10:00 PM


Visibility: 6 mi

Pressure: 30.34 "Hg

Humidity: 93%

Dew point: 54 °F

Location of TáborLocation

Historic Weather in Tábor — Graph

°F

Tábor temperature yesterday

Maximum temperature yesterday: 62 °F (at 4:00 PM)
Minimum temperature yesterday: 56 °F (at 10:00 PM)
Average temperature yesterday: 59 °F

Past Weeks' High & Low Weather Summary

 TemperatureHumidityPressure
High72 °F (Sep 20, 1:00 PM)100% (Sep 21, 7:00 AM)30.43 "Hg (Sep 21, 7:00 AM)
Low32 °F (Sep 24, 7:00 AM)53% (Sep 24, 3:00 PM)29.84 "Hg (Sep 21, 6:00 PM)
Average54 °F86%30.12 "Hg
* Reported Sep 16 10:00 PM — Oct 1 10:00 PM, Tábor, Weather by CustomWeather, © 2014

Note: Actual official high and low records may vary slightly from our data, if they occured in-between our weather recording intervals... More about our weather records

Advertising

Tábor weather history for previous 24 hours

 ConditionsComfort  
Time TempWeatherWind HumidityBarometerVisibility
10:00 PM
Oct 1
56 °FFog.2 mph93%30.34 "Hg6 mi
9:00 PM57 °FOvercast.N/A91%30.32 "Hg8 mi
8:00 PM58 °FPassing clouds.2 mph88%30.32 "Hg9 mi
7:00 PM59 °FPassing clouds.1 mph84%30.30 "Hg11 mi
6:00 PM60 °FPartly sunny.2 mph84%30.29 "Hg9 mi
5:00 PM62 °FOvercast.2 mph83%30.27 "Hg9 mi
4:00 PM62 °FOvercast.5 mph81%30.27 "Hg11 mi
3:00 PM61 °FOvercast.3 mph81%30.27 "Hg11 mi
2:00 PM61 °FOvercast.5 mph83%30.29 "Hg9 mi
1:00 PM61 °FOvercast.5 mph82%30.29 "Hg9 mi
12:00 PM61 °FOvercast.5 mph80%30.29 "Hg9 mi
11:00 AM61 °FFog.2 mph87%30.29 "Hg4 mi
10:00 AM60 °FFog.3 mph92%30.29 "Hg3 mi
9:00 AM58 °FFog.No wind97%30.29 "Hg1 mi
8:00 AM56 °FFog.1 mph100%30.28 "Hg1 mi
7:00 AM56 °FDuststorm.N/A99%30.28 "Hg1 mi
6:00 AM57 °FCool.2 mph99%30.28 "Hg2 mi
5:00 AM57 °FDuststorm.N/A100%30.28 "Hg1 mi
4:00 AM57 °FCool.1 mph100%30.28 "Hg2 mi
3:00 AM57 °FCool.1 mph98%30.29 "Hg1 mi
2:00 AM58 °FRain showers. Overcast.N/A98%30.28 "Hg2 mi
1:00 AM58 °FCool.2 mph97%30.28 "Hg4 mi
12:00 AM58 °FRain showers. Overcast.N/A96%30.29 "Hg7 mi
Weather by CustomWeather, © 2014

See weather overviewHow to use our weather pages